Time,TemperatureF,DewpointF,PressureIn,WindDirection,WindDirectionDegrees,WindSpeedMPH,WindSpeedGustMPH,Humidity,HourlyPrecipIn,Conditions,Clouds,dailyrainin,SoftwareType,DateUTC
2013-05-27 00:00:00,38.0,-99.9,-100.00,North,-999,-999.0,-999.0,-999,-99.99,,,0.00,,2013-05-27 07:00:00,
2013-05-27 00:53:00,38.0,-99.9,-100.00,North,-999,-999.0,-999.0,-999,-99.99,,,0.00,,2013-05-27 07:53:00,
2013-05-27 01:00:00,37.0,-99.9,-100.00,NE,38,3.0,6.0,-999,-99.99,,,0.00,,2013-05-27 08:00:00,
2013-05-27 01:52:00,37.0,-99.9,-100.00,NE,38,3.0,6.0,-999,-99.99,,,0.00,,2013-05-27 08:52:00,
2013-05-27 02:00:00,38.0,-99.9,-100.00,NNE,22,2.0,4.0,-999,-99.99,,,0.01,,2013-05-27 09:00:00,
2013-05-27 02:53:00,38.0,-99.9,-100.00,NNE,22,2.0,4.0,-999,-99.99,,,0.01,,2013-05-27 09:53:00,
2013-05-27 03:00:00,38.0,-99.9,-100.00,SSW,199,3.0,6.0,-999,-99.99,,,0.01,,2013-05-27 10:00:00,
2013-05-27 03:53:00,38.0,-99.9,-100.00,SSW,199,3.0,6.0,-999,-99.99,,,0.01,,2013-05-27 10:53:00,
2013-05-27 04:00:00,37.0,-99.9,-100.00,South,169,1.0,4.0,-999,-99.99,,,0.01,,2013-05-27 11:00:00,
2013-05-27 04:52:00,37.0,-99.9,-100.00,South,169,1.0,4.0,-999,-99.99,,,0.01,,2013-05-27 11:52:00,
2013-05-27 05:00:00,36.0,-99.9,-100.00,ESE,114,1.0,4.0,-999,-99.99,,,0.00,,2013-05-27 12:00:00,
2013-05-27 05:52:00,36.0,-99.9,-100.00,ESE,114,1.0,4.0,-999,-99.99,,,0.00,,2013-05-27 12:52:00,
2013-05-27 06:00:00,37.0,-99.9,-100.00,SE,130,2.0,5.0,-999,-99.99,,,0.01,,2013-05-27 13:00:00,
2013-05-27 06:53:00,37.0,-99.9,-100.00,SE,130,2.0,5.0,-999,-99.99,,,0.01,,2013-05-27 13:53:00,
2013-05-27 07:00:00,38.0,-99.9,-100.00,South,188,5.0,10.0,-999,-99.99,,,0.01,,2013-05-27 14:00:00,
2013-05-27 07:52:00,38.0,-99.9,-100.00,South,188,5.0,10.0,-999,-99.99,,,0.01,,2013-05-27 14:52:00,
2013-05-27 08:00:00,38.0,-99.9,-100.00,SSW,193,7.0,11.0,-999,-99.99,,,0.01,,2013-05-27 15:00:00,
2013-05-27 08:53:00,38.0,-99.9,-100.00,SSW,193,7.0,11.0,-999,-99.99,,,0.01,,2013-05-27 15:53:00,
2013-05-27 09:00:00,40.0,-99.9,-100.00,SSW,203,7.0,11.0,-999,-99.99,,,0.01,,2013-05-27 16:00:00,
2013-05-27 09:53:00,40.0,-99.9,-100.00,SSW,203,7.0,11.0,-999,-99.99,,,0.01,,2013-05-27 16:53:00,
2013-05-27 10:00:00,43.0,-99.9,-100.00,South,189,9.0,13.0,-999,-99.99,,,0.01,,2013-05-27 17:00:00,
2013-05-27 10:52:00,43.0,-99.9,-100.00,South,189,9.0,13.0,-999,-99.99,,,0.01,,2013-05-27 17:52:00,
2013-05-27 11:00:00,42.0,-99.9,-100.00,SSW,205,11.0,21.0,-999,-99.99,,,0.01,,2013-05-27 18:00:00,
2013-05-27 11:52:00,42.0,-99.9,-100.00,SSW,205,11.0,21.0,-999,-99.99,,,0.01,,2013-05-27 18:52:00,
2013-05-27 12:00:00,45.0,-99.9,-100.00,South,170,8.0,18.0,-999,-99.99,,,0.01,,2013-05-27 19:00:00,
2013-05-27 12:52:00,45.0,-99.9,-100.00,South,170,8.0,18.0,-999,-99.99,,,0.01,,2013-05-27 19:52:00,
2013-05-27 13:00:00,41.0,-99.9,-100.00,South,191,11.0,20.0,-999,-99.99,,,0.00,,2013-05-27 20:00:00,
2013-05-27 13:53:00,41.0,-99.9,-100.00,South,191,11.0,20.0,-999,-99.99,,,0.00,,2013-05-27 20:53:00,
2013-05-27 14:00:00,45.0,-99.9,-100.00,SSW,198,8.0,16.0,-999,-99.99,,,0.02,,2013-05-27 21:00:00,
2013-05-27 14:53:00,45.0,-99.9,-100.00,SSW,198,8.0,16.0,-999,-99.99,,,0.02,,2013-05-27 21:53:00,
2013-05-27 15:00:00,47.0,-99.9,-100.00,SSW,195,11.0,22.0,-999,-99.99,,,0.01,,2013-05-27 22:00:00,
2013-05-27 15:53:00,47.0,-99.9,-100.00,SSW,195,11.0,22.0,-999,-99.99,,,0.01,,2013-05-27 22:53:00,
2013-05-27 16:00:00,47.0,-99.9,-100.00,SSW,193,12.0,20.0,-999,-99.99,,,0.01,,2013-05-27 23:00:00,
2013-05-27 16:52:00,47.0,-99.9,-100.00,SSW,193,12.0,20.0,-999,-99.99,,,0.01,,2013-05-27 23:52:00,
2013-05-27 17:00:00,42.0,-99.9,-100.00,South,186,14.0,23.0,-999,-99.99,,,0.00,,2013-05-28 00:00:00,
2013-05-27 17:52:00,42.0,-99.9,-100.00,South,186,14.0,23.0,-999,-99.99,,,0.00,,2013-05-28 00:52:00,
2013-05-27 18:00:00,41.0,-99.9,-100.00,South,188,9.0,17.0,-999,-99.99,,,0.01,,2013-05-28 01:00:00,
2013-05-27 18:42:00,41.0,-99.9,-100.00,South,188,9.0,17.0,-999,-99.99,,,0.01,,2013-05-28 01:42:00,
2013-05-27 18:52:00,41.0,-99.9,-100.00,South,188,9.0,17.0,-999,-99.99,,,0.01,,2013-05-28 01:52:00,
2013-05-27 19:00:00,40.0,-99.9,-100.00,SSW,199,7.0,13.0,-999,-99.99,,,0.00,,2013-05-28 02:00:00,
2013-05-27 19:42:00,40.0,-99.9,-100.00,SSW,199,7.0,13.0,-999,-99.99,,,0.00,,2013-05-28 02:42:00,
2013-05-27 19:52:00,40.0,-99.9,-100.00,SSW,199,7.0,13.0,-999,-99.99,,,0.00,,2013-05-28 02:52:00,
2013-05-27 20:00:00,39.0,-99.9,-100.00,SSW,197,6.0,10.0,-999,-99.99,,,0.00,,2013-05-28 03:00:00,
2013-05-27 20:43:00,39.0,-99.9,-100.00,SSW,197,6.0,10.0,-999,-99.99,,,0.00,,2013-05-28 03:43:00,
2013-05-27 20:53:00,39.0,-99.9,-100.00,SSW,197,6.0,10.0,-999,-99.99,,,0.00,,2013-05-28 03:53:00,
2013-05-27 21:00:00,39.0,-99.9,-100.00,SSW,201,5.0,9.0,-999,-99.99,,,0.00,,2013-05-28 04:00:00,
2013-05-27 21:53:00,39.0,-99.9,-100.00,SSW,201,5.0,9.0,-999,-99.99,,,0.00,,2013-05-28 04:53:00,
2013-05-27 22:00:00,39.0,-99.9,-100.00,SSW,196,6.0,9.0,-999,-99.99,,,0.00,,2013-05-28 05:00:00,
2013-05-27 22:43:00,39.0,-99.9,-100.00,SSW,196,6.0,9.0,-999,-99.99,,,0.00,,2013-05-28 05:43:00,
2013-05-27 22:53:00,39.0,-99.9,-100.00,SSW,196,6.0,9.0,-999,-99.99,,,0.00,,2013-05-28 05:53:00,
2013-05-27 23:00:00,39.0,-99.9,-100.00,South,191,7.0,13.0,-999,-99.99,,,0.01,,2013-05-28 06:00:00,
2013-05-27 23:52:00,39.0,-99.9,-100.00,South,191,7.0,13.0,-999,-99.99,,,0.01,,2013-05-28 06:52:00,